QPF
0.07 0.12 0.08 0.07 0.02 0.00 0.00 0.00 0.00 0.00 0.00 0.02 0.01 0.01 0.02 0.00 0.00 0.00 0.00 0.00 0.00 0.00 0.00 0.00 0.00 0.00 0.00 0.00 0.00 0.00 0.00 0.00 0.00 0.00 0.00 0.00 0.00 0.01 0.00 0.01 0.02 0.05 0.04
0.03 0.07 0.04 0.03 0.01 0.00 0.00 0.00 0.00 0.00 0.00 0.00 0.00 0.00 0.00 0.00 0.00 0.00 0.00 0.00 0.00 0.00 0.00 0.00 0.00 0.00 0.00 0.00 0.00 0.00 0.00 0.00 0.00 0.00 0.00 0.00 0.00 0.01 0.01 0.01 0.01 0.04 0.06
0.01 0.01 0.02 0.01 0.01 0.00 0.00 0.00 0.00 0.00 0.00 0.00 0.00 0.00 0.00 0.00 0.00 0.00 0.00 0.00 0.00 0.00 0.00 0.00 0.00 0.00 0.00 0.01 0.00 0.00 0.00 0.00 0.00 0.00 0.00 0.00 0.00 0.00 0.01 0.00 0.00 0.01 0.02
0.00 0.00 0.04 0.04 0.00 0.00 0.00 0.00 0.00 0.00 0.00 0.00 0.00 0.00 0.00 0.00 0.00 0.00 0.00 0.00 0.00 0.00 0.00 0.00 0.00 0.00 0.00 0.00 0.00 0.01 0.01 0.01 0.00 0.01 0.00 0.00 0.00 0.00 0.00 0.00 0.00 0.01 0.01
0.00 0.01 0.02 0.00 0.00 0.00 0.00 0.00 0.00 0.00 0.00 0.00 0.00 0.00 0.00 0.00 0.00 0.00 0.00 0.00 0.00 0.00 0.00 0.00 0.00 0.00 0.00 0.00 0.00 0.00 0.00 0.00 0.00 0.00 0.00 0.00 0.00 0.00 0.00 0.00 0.01 0.01 0.03
0.00 0.00 0.00 0.00 0.02 0.01 0.01 0.00 0.00 0.00 0.00 0.00 0.00 0.00 0.00 0.00 0.00 0.00 0.00 0.00 0.00 0.00 0.00 0.00 0.00 0.00 0.00 0.00 0.00 0.00 0.00 0.00 0.00 0.00 0.00 0.00 0.00 0.01 0.01 0.02 0.03 0.02 0.02
0.01 0.02 0.02 0.04 0.07 0.05 0.01 0.00 0.00 0.00 0.00 0.00 0.00 0.00 0.00 0.00 0.00 0.00 0.00 0.00 0.00 0.00 0.00 0.00 0.00 0.00 0.00 0.00 0.00 0.00 0.00 0.00 0.00 0.00 0.00 0.01 0.01 0.02 0.04 0.04 0.04 0.04 0.03
0.01 0.03 0.04 0.05 0.03 0.03 0.01 0.01 0.00 0.00 0.00 0.00 0.00 0.00 0.00 0.01 0.00 0.00 0.00 0.00 0.00 0.00 0.00 0.00 0.00 0.00 0.00 0.00 0.00 0.00 0.00 0.00 0.00 0.00 0.01 0.02 0.03 0.05 0.07 0.06 0.03 0.02 0.02
0.00 0.00 0.00 0.00 0.00 0.00 0.00 0.00 0.00 0.00 0.00 0.00 0.00 0.00 0.00 0.01 0.00 0.00 0.00 0.00 0.00 0.00 0.00 0.00 0.00 0.00 0.00 0.00 0.00 0.00 0.00 0.00 0.00 0.00 0.00 0.00 0.00 0.00 0.00 0.00 0.01 0.04 0.02
0.00 0.00 0.00 0.00 0.00 0.00 0.00 0.00 0.00 0.00 0.00 0.00 0.00 0.01 0.00 0.00 0.00 0.00 0.00 0.00 0.00 0.00 0.00 0.00 0.00 0.00 0.00 0.00 0.00 0.00 0.00 0.00 0.00 0.00 0.00 0.00 0.00 0.00 0.00 0.00 0.00 0.03 0.05
0.00 0.00 0.00 0.00 0.00 0.00 0.00 0.00 0.00 0.00 0.00 0.00 0.00 0.00 0.00 0.00 0.00 0.00 0.00 0.00 0.00 0.00 0.00 0.00 0.00 0.00 0.00 0.00 0.00 0.00 0.00 0.00 0.00 0.01 0.01 0.01 0.01 0.02 0.03 0.02 0.02 0.04 0.06
0.00 0.00 0.00 0.00 0.00 0.00 0.00 0.00 0.00 0.00 0.00 0.00 0.00 0.00 0.01 0.02 0.01 0.00 0.00 0.00 0.00 0.00 0.01 0.00 0.00 0.00 0.00 0.00 0.00 0.00 0.00 0.00 0.04 0.03 0.03 0.02 0.01 0.02 0.03 0.04 0.04 0.01 0.03
0.00 0.00 0.00 0.00 0.00 0.00 0.00 0.00 0.00 0.00 0.00 0.00 0.01 0.00 0.00 0.00 0.02 0.00 0.00 0.00 0.00 0.00 0.00 0.00 0.00 0.00 0.00 0.00 0.00 0.00 0.00 0.02 0.04 0.02 0.01 0.00 0.00 0.01 0.02 0.03 0.02 0.01 0.00
0.00 0.00 0.00 0.00 0.00 0.00 0.00 0.00 0.00 0.00 0.00 0.01 0.00 0.00 0.00 0.01 0.00 0.00 0.00 0.00 0.00 0.00 0.00 0.00 0.00 0.00 0.00 0.00 0.00 0.00 0.01 0.02 0.01 0.01 0.00 0.00 0.01 0.03 0.01 0.03 0.04 0.04 0.04
0.00 0.00 0.00 0.00 0.00 0.00 0.00 0.00 0.00 0.00 0.00 0.00 0.00 0.00 0.00 0.00 0.00 0.00 0.00 0.00 0.00 0.00 0.00 0.00 0.00 0.00 0.00 0.00 0.00 0.00 0.00 0.00 0.00 0.00 0.00 0.00 0.02 0.04 0.01 0.02 0.06 0.08 0.09
0.00 0.00 0.00 0.00 0.00 0.00 0.00 0.01 0.00 0.00 0.00 0.00 0.00 0.00 0.00 0.00 0.00 0.00 0.00 0.00 0.00 0.00 0.00 0.00 0.00 0.00 0.00 0.00 0.00 0.00 0.00 0.00 0.00 0.00 0.00 0.01 0.04 0.03 0.00 0.01 0.02 0.09 0.14
0.00 0.00 0.00 0.00 0.01 0.00 0.00 0.00 0.00 0.00 0.00 0.00 0.00 0.00 0.00 0.00 0.00 0.00 0.00 0.00 0.00 0.00 0.00 0.00 0.00 0.00 0.00 0.00 0.00 0.00 0.00 0.00 0.00 0.00 0.00 0.01 0.02 0.00 0.00 0.01 0.02 0.04 0.11
0.00 0.00 0.01 0.00 0.00 0.00 0.00 0.00 0.01 0.02 0.02 0.01 0.00 0.00 0.00 0.00 0.00 0.00 0.00 0.00 0.00 0.00 0.00 0.00 0.00 0.00 0.00 0.00 0.00 0.01 0.01 0.01 0.00 0.00 0.00 0.00 0.00 0.00 0.00 0.01 0.01 0.03 0.05
0.01 0.01 0.00 0.00 0.00 0.00 0.00 0.00 0.00 0.00 0.00 0.00 0.00 0.02 0.00 0.00 0.00 0.00 0.00 0.00 0.00 0.00 0.00 0.00 0.00 0.00 0.00 0.00 0.00 0.01 0.02 0.02 0.01 0.00 0.00 0.00 0.00 0.00 0.01 0.00 0.02 0.01 0.01
0.01 0.00 0.00 0.00 0.00 0.00 0.00 0.00 0.00 0.00 0.00 0.01 0.03 0.05 0.03 0.01 0.01 0.00 0.00 0.00 0.00 0.00 0.00 0.00 0.00 0.00 0.00 0.00 0.00 0.01 0.01 0.02 0.01 0.00 0.00 0.00 0.00 0.00 0.00 0.00 0.01 0.00 0.00
0.00 0.00 0.00 0.00 0.00 0.00 0.00 0.00 0.00 0.00 0.02 0.05 0.08 0.03 0.00 0.01 0.01 0.00 0.00 0.00 0.00 0.00 0.00 0.00 0.00 0.00 0.00 0.00 0.00 0.00 0.00 0.01 0.01 0.00 0.00 0.00 0.00 0.00 0.00 0.00 0.00 0.00 0.00
0.01 0.01 0.00 0.00 0.00 0.00 0.00 0.00 0.03 0.04 0.05 0.08 0.08 0.06 0.01 0.03 0.02 0.01 0.00 0.00 0.00 0.00 0.00 0.00 0.00 0.00 0.00 0.00 0.00 0.00 0.00 0.00 0.00 0.00 0.00 0.00 0.00 0.00 0.01 0.00 0.00 0.00 0.00
0.03 0.02 0.01 0.01 0.01 0.02 0.02 0.03 0.07 0.07 0.06 0.05 0.05 0.07 0.05 0.01 0.00 0.00 0.00 0.00 0.00 0.00 0.00 0.00 0.00 0.00 0.00 0.00 0.00 0.00 0.00 0.00 0.00 0.00 0.01 0.00 0.00 0.00 0.00 0.00 0.00 0.00 0.00
0.01 0.02 0.01 0.02 0.02 0.04 0.06 0.05 0.02 0.00 0.00 0.00 0.00 0.00 0.00 0.00 0.00 0.00 0.00 0.00 0.00 0.00 0.00 0.00 0.00 0.00 0.00 0.00 0.00 0.00 0.00 0.00 0.00 0.00 0.02 0.01 0.00 0.00 0.00 0.00 0.00 0.00 0.00
0.00 0.00 0.00 0.00 0.00 0.00 0.00 0.00 0.00 0.00 0.00 0.00 0.00 0.00 0.00 0.00 0.00 0.00 0.00 0.00 0.00 0.00 0.00 0.00 0.00 0.00 0.00 0.00 0.00 0.00 0.00 0.00 0.00 0.00 0.02 0.03 0.01 0.01 0.01 0.00 0.00 0.00 0.00
0.00 0.00 0.00 0.00 0.00 0.00 0.00 0.00 0.00 0.00 0.00 0.00 0.00 0.00 0.00 0.00 0.00 0.00 0.00 0.00 0.00 0.00 0.00 0.00 0.00 0.00 0.00 0.00 0.00 0.00 0.00 0.00 0.00 0.00 0.00 0.04 0.01 0.00 0.00 0.01 0.00 0.00 0.00
MSLP
1011.60 1012.13 1012.90 1013.25 1013.57 1013.61 1014.05 1014.33 1014.76 1015.13 1015.23 1015.55 1015.66 1016.10 1016.13 1016.30 1016.40 1016.29 1016.11 1015.97 1015.84 1015.98 1016.07 1016.10 1016.10 1016.08 1015.68 1015.41 1015.21 1015.00 1014.72 1014.52 1014.00 1013.72 1013.80 1013.64 1013.81 1013.72 1013.82 1013.62 1013.30 1013.67 1013.57
1011.44 1010.78 1012.28 1012.84 1013.18 1013.58 1013.94 1014.42 1014.91 1014.90 1014.97 1015.23 1015.44 1015.84 1015.86 1016.19 1016.09 1016.15 1016.06 1016.06 1016.04 1016.01 1016.04 1016.09 1015.97 1015.87 1015.87 1015.68 1015.44 1015.26 1014.90 1014.96 1014.50 1014.14 1013.91 1013.40 1013.20 1013.08 1013.06 1013.38 1013.10 1012.30 1012.97
1011.88 1011.92 1012.29 1013.37 1013.46 1013.80 1014.04 1014.43 1014.92 1015.24 1015.13 1015.14 1015.51 1015.44 1015.70 1015.95 1015.97 1016.21 1016.12 1016.17 1016.28 1016.20 1016.13 1016.27 1016.08 1015.93 1015.86 1015.83 1016.04 1015.40 1014.77 1014.50 1014.12 1013.79 1013.38 1013.00 1012.35 1012.21 1012.12 1012.23 1012.17 1011.73 1011.69
1011.32 1011.74 1012.59 1012.90 1013.17 1013.57 1014.16 1014.93 1015.30 1015.27 1015.47 1015.52 1015.57 1015.72 1015.88 1015.82 1016.06 1016.20 1016.25 1016.46 1016.40 1016.07 1016.06 1016.20 1016.11 1015.72 1015.62 1015.75 1015.69 1015.32 1015.12 1014.68 1014.35 1013.73 1013.15 1012.38 1011.62 1011.34 1011.42 1011.34 1011.12 1010.95 1010.70
1011.34 1011.94 1012.42 1013.02 1013.32 1014.00 1014.68 1014.98 1015.18 1015.27 1015.46 1015.63 1015.89 1015.87 1015.76 1015.85 1015.93 1016.30 1016.53 1016.49 1016.27 1015.99 1015.93 1015.71 1015.54 1015.66 1016.36 1016.33 1015.95 1015.43 1015.47 1014.77 1014.02 1013.33 1012.36 1011.88 1011.91 1011.60 1011.09 1010.88 1010.73 1010.42 1010.17
1011.53 1012.19 1012.79 1013.22 1013.92 1014.34 1014.63 1014.76 1015.17 1015.35 1015.71 1015.98 1015.85 1015.72 1015.82 1015.74 1016.38 1016.99 1017.05 1016.47 1015.93 1015.77 1015.49 1015.60 1015.36 1015.52 1015.78 1015.82 1016.06 1016.00 1015.80 1015.49 1014.73 1013.87 1012.72 1011.97 1011.60 1011.37 1011.17 1011.11 1010.75 1010.88 1009.90
1012.49 1012.93 1013.42 1013.60 1014.41 1014.68 1014.76 1015.06 1015.39 1015.69 1015.85 1015.71 1015.63 1015.75 1015.80 1016.07 1017.03 1017.33 1017.19 1016.50 1015.88 1015.49 1015.26 1015.30 1015.19 1014.77 1015.51 1015.54 1015.43 1015.30 1014.87 1014.80 1014.71 1014.34 1013.41 1012.65 1012.03 1011.46 1011.49 1011.34 1011.12 1010.67 1010.33
1013.38 1013.47 1013.85 1014.46 1014.24 1014.63 1014.90 1015.14 1015.68 1015.82 1015.77 1015.59 1015.47 1015.58 1015.82 1016.50 1017.25 1017.42 1017.03 1016.15 1015.53 1015.25 1015.10 1015.11 1015.35 1015.26 1015.52 1015.81 1015.85 1014.88 1014.48 1014.06 1013.76 1013.95 1013.48 1013.00 1012.86 1012.60 1012.17 1011.70 1011.35 1010.84 1010.31
1014.03 1014.01 1014.37 1014.65 1014.34 1014.65 1014.86 1015.20 1015.52 1015.71 1015.83 1015.63 1015.57 1015.68 1015.92 1016.17 1016.98 1016.99 1016.50 1015.64 1014.89 1014.89 1014.71 1014.83 1015.14 1015.25 1015.78 1016.08 1015.85 1014.83 1014.16 1013.62 1013.05 1013.42 1013.52 1013.12 1012.73 1012.46 1012.40 1011.85 1010.56 1009.85 1009.28
1014.21 1014.05 1014.08 1014.28 1014.46 1014.74 1015.31 1015.67 1015.78 1015.79 1015.45 1015.68 1015.77 1016.12 1016.57 1016.38 1016.97 1016.93 1016.54 1015.46 1014.82 1014.64 1014.31 1014.20 1014.73 1015.17 1015.51 1015.91 1015.80 1014.86 1013.57 1012.99 1012.86 1012.41 1012.45 1012.24 1011.98 1011.37 1011.44 1011.42 1010.22 1009.20 1008.49
1014.43 1014.44 1014.63 1014.75 1014.87 1015.20 1015.43 1015.62 1015.81 1015.78 1015.99 1016.10 1016.13 1016.09 1015.94 1016.46 1016.81 1017.19 1017.14 1016.26 1015.41 1014.98 1014.81 1014.34 1014.72 1015.48 1015.26 1015.41 1015.40 1014.73 1013.67 1013.59 1012.63 1011.71 1011.14 1010.88 1010.66 1010.47 1010.28 1010.07 1009.91 1009.38 1008.60
1014.61 1014.60 1015.03 1015.07 1015.17 1015.45 1015.75 1015.92 1015.92 1015.94 1015.63 1015.75 1015.64 1015.74 1015.68 1016.12 1016.91 1017.29 1017.27 1017.11 1016.90 1016.20 1015.45 1014.97 1014.91 1014.98 1015.16 1014.99 1014.63 1014.06 1013.59 1013.13 1012.11 1011.66 1010.53 1009.93 1009.52 1009.23 1009.28 1009.36 1009.16 1008.98 1008.75
1014.88 1015.13 1015.27 1015.49 1015.79 1016.02 1016.05 1016.10 1015.64 1015.68 1015.67 1015.65 1015.91 1015.65 1015.72 1016.20 1017.17 1017.28 1017.25 1016.95 1016.71 1016.02 1015.56 1015.33 1015.30 1015.03 1014.68 1014.10 1013.59 1013.34 1012.69 1011.43 1011.33 1010.72 1010.00 1009.62 1009.18 1009.15 1009.43 1009.12 1008.86 1008.81 1008.74
1015.63 1015.94 1016.05 1016.25 1016.38 1016.52 1016.14 1016.15 1015.81 1015.83 1015.85 1016.46 1015.86 1015.93 1016.55 1016.62 1016.72 1016.80 1016.41 1016.00 1015.84 1015.50 1015.38 1014.47 1014.40 1014.27 1013.90 1013.52 1012.88 1012.18 1011.80 1011.61 1011.15 1010.52 1010.06 1009.57 1009.00 1009.29 1008.92 1008.99 1008.56 1008.33 1008.35
1016.21 1016.42 1016.52 1016.57 1016.64 1016.56 1016.35 1016.74 1016.56 1017.34 1017.42 1016.78 1016.47 1016.16 1016.69 1016.81 1017.83 1018.01 1017.78 1017.16 1016.88 1016.28 1015.87 1014.33 1013.86 1013.58 1013.13 1012.94 1012.97 1012.71 1012.30 1011.86 1011.23 1010.72 1009.96 1009.39 1008.85 1009.13 1009.00 1008.74 1008.39 1007.89 1007.80
1016.20 1016.30 1016.39 1016.58 1016.34 1016.52 1016.26 1016.86 1017.64 1017.83 1018.31 1018.37 1018.16 1017.82 1017.42 1017.97 1018.11 1018.22 1018.06 1017.57 1016.99 1016.35 1015.19 1014.63 1014.28 1014.27 1014.29 1014.17 1013.79 1013.26 1012.77 1012.31 1011.74 1010.95 1010.29 1009.68 1009.29 1009.51 1009.25 1008.64 1008.16 1007.73 1007.29
1016.18 1016.51 1016.36 1016.35 1016.28 1016.24 1016.39 1016.65 1016.84 1018.09 1018.22 1018.32 1018.34 1018.22 1018.17 1018.46 1018.39 1018.37 1017.91 1017.29 1017.01 1016.08 1015.30 1015.41 1015.56 1015.46 1014.96 1014.44 1013.94 1013.40 1012.93 1012.48 1011.76 1011.03 1010.43 1010.15 1010.14 1009.67 1009.14 1008.45 1007.87 1007.50 1006.94
1016.39 1017.03 1016.51 1016.56 1016.54 1016.20 1016.45 1016.73 1016.83 1017.01 1017.18 1017.36 1018.02 1018.11 1018.52 1018.58 1018.53 1018.26 1017.63 1016.67 1016.19 1015.78 1015.49 1016.00 1016.15 1015.82 1015.46 1014.93 1014.24 1013.50 1012.77 1012.17 1011.60 1011.22 1010.54 1010.36 1010.24 1009.64 1008.85 1007.99 1007.52 1006.81 1007.09
1016.12 1016.57 1016.50 1016.88 1016.40 1016.96 1016.58 1016.60 1016.34 1016.47 1016.46 1016.38 1017.09 1018.03 1018.27 1018.41 1018.32 1017.99 1017.50 1016.64 1016.09 1015.97 1015.85 1016.02 1016.31 1015.87 1015.30 1014.94 1014.42 1013.89 1013.31 1012.57 1011.96 1011.25 1010.55 1010.05 1010.00 1009.57 1008.71 1007.70 1006.93 1007.10 1007.73
1016.56 1017.38 1017.34 1016.49 1016.56 1016.68 1016.65 1016.59 1016.58 1016.50 1016.58 1016.62 1017.05 1017.41 1017.70 1017.11 1018.07 1017.38 1017.10 1016.81 1016.31 1016.14 1016.07 1015.75 1015.80 1015.89 1015.62 1015.14 1014.80 1014.40 1014.01 1012.88 1012.06 1011.60 1010.51 1009.81 1010.22 1009.57 1009.01 1008.12 1008.06 1008.30 1008.84
1016.54 1017.20 1017.66 1016.59 1016.73 1017.05 1017.04 1017.39 1017.12 1017.06 1016.91 1017.13 1017.41 1017.87 1018.07 1017.76 1017.27 1016.96 1017.09 1016.87 1016.73 1016.37 1016.36 1016.13 1015.49 1015.48 1015.36 1015.03 1014.97 1014.30 1014.06 1013.75 1012.67 1012.23 1011.21 1010.44 1010.73 1010.20 1009.88 1009.52 1009.36 1009.62 1009.82
1016.74 1016.59 1016.77 1016.92 1017.38 1018.00 1018.44 1018.19 1017.75 1017.52 1017.19 1017.20 1017.34 1017.55 1018.09 1017.96 1017.54 1017.26 1017.60 1017.21 1016.84 1016.75 1016.54 1016.37 1016.01 1015.78 1015.52 1015.26 1015.18 1014.87 1014.79 1015.06 1014.11 1013.06 1012.22 1011.22 1011.42 1011.11 1010.80 1010.67 1010.64 1010.71 1010.66
1017.05 1017.10 1017.05 1017.72 1018.18 1018.60 1018.61 1018.10 1017.88 1017.43 1017.21 1017.19 1017.33 1017.61 1017.69 1017.95 1017.91 1017.80 1017.74 1017.91 1017.46 1017.17 1016.96 1016.80 1016.50 1016.21 1016.11 1015.82 1015.41 1015.34 1015.12 1015.91 1015.62 1014.22 1012.87 1011.86 1012.10 1011.86 1011.74 1011.66 1011.68 1011.66 1011.71
1017.09 1017.06 1017.48 1017.48 1017.91 1017.57 1017.71 1017.85 1017.57 1017.79 1017.79 1018.04 1018.29 1018.76 1018.95 1019.07 1018.83 1018.61 1018.40 1018.10 1017.93 1017.55 1017.35 1017.24 1017.07 1016.84 1016.56 1016.29 1015.78 1015.66 1015.72 1016.47 1016.08 1014.38 1013.31 1012.34 1012.26 1012.26 1012.34 1012.34 1012.37 1012.42 1012.39
1018.04 1017.93 1017.89 1018.00 1017.98 1017.87 1017.64 1017.97 1018.16 1018.33 1018.71 1019.20 1019.61 1019.81 1019.48 1018.98 1018.83 1018.71 1018.55 1018.44 1018.22 1018.00 1017.93 1017.81 1017.58 1017.38 1016.98 1016.74 1016.73 1016.74 1017.00 1016.70 1016.03 1015.49 1013.57 1012.60 1012.28 1012.37 1012.30 1012.75 1012.88 1012.74 1012.43
1018.87 1018.88 1018.79 1018.70 1018.60 1018.50 1018.50 1018.54 1018.69 1018.91 1019.29 1019.56 1019.50 1019.32 1019.38 1019.28 1019.27 1019.32 1019.34 1019.27 1019.06 1018.71 1018.52 1018.12 1017.85 1017.65 1017.22 1016.95 1017.59 1017.63 1017.28 1016.76 1016.11 1015.45 1014.60 1013.03 1012.49 1012.41 1012.50 1012.18 1012.80 1012.57 1012.41
Thickness
5726 5710 5711 5714 5710 5711 5705 5699 5693 5688 5684 5676 5670 5661 5657 5653 5648 5644 5640 5637 5634 5628 5622 5616 5611 5608 5606 5603 5599 5595 5590 5585 5580 5577 5571 5567 5562 5560 5558 5561 5566 5566 5570
5721 5711 5715 5707 5706 5701 5697 5687 5680 5679 5677 5670 5663 5655 5651 5643 5640 5634 5629 5626 5620 5615 5609 5603 5600 5597 5591 5587 5583 5577 5573 5565 5560 5554 5554 5555 5554 5552 5549 5546 5550 5560 5558
5716 5711 5702 5690 5691 5686 5679 5674 5666 5663 5662 5659 5651 5648 5641 5635 5631 5623 5618 5612 5606 5601 5596 5589 5585 5582 5577 5571 5563 5563 5559 5556 5553 5550 5549 5550 5553 5550 5546 5544 5545 5551 5552
5711 5710 5697 5690 5683 5674 5666 5656 5649 5649 5646 5642 5639 5635 5630 5627 5619 5612 5605 5598 5592 5589 5584 5578 5574 5573 5567 5561 5555 5550 5544 5544 5543 5544 5543 5547 5551 5550 5546 5542 5542 5545 5548
5704 5694 5686 5677 5671 5659 5651 5645 5642 5640 5636 5633 5625 5622 5620 5614 5608 5600 5592 5586 5580 5576 5573 5570 5566 5559 5548 5543 5541 5539 5534 5538 5539 5539 5544 5544 5539 5538 5538 5541 5538 5540 5542
5694 5685 5676 5668 5657 5650 5642 5637 5633 5630 5623 5616 5615 5613 5607 5604 5590 5580 5574 5574 5572 5567 5563 5556 5554 5547 5540 5535 5528 5524 5523 5522 5524 5527 5534 5537 5536 5535 5533 5531 5530 5524 5529
5676 5669 5660 5655 5644 5638 5631 5625 5621 5616 5613 5610 5607 5601 5595 5588 5572 5564 5560 5560 5559 5556 5552 5546 5542 5541 5531 5527 5524 5519 5519 5516 5513 5515 5520 5523 5524 5525 5521 5519 5517 5518 5518
5658 5655 5648 5637 5636 5630 5622 5615 5610 5604 5602 5600 5596 5590 5582 5571 5557 5550 5547 5550 5548 5544 5540 5535 5529 5526 5521 5514 5509 5512 5512 5513 5513 5508 5509 5509 5507 5505 5503 5504 5506 5508 5511
5638 5638 5630 5623 5623 5618 5613 5604 5598 5593 5588 5585 5580 5574 5567 5562 5548 5542 5539 5540 5540 5534 5531 5526 5520 5515 5504 5498 5498 5503 5504 5505 5506 5502 5498 5497 5495 5492 5488 5491 5501 5505 5508
5628 5626 5623 5618 5616 5610 5601 5591 5586 5581 5579 5571 5566 5558 5546 5545 5535 5529 5528 5531 5528 5524 5522 5519 5511 5503 5496 5488 5488 5492 5500 5501 5498 5498 5494 5492 5488 5488 5486 5485 5494 5501 5507
5618 5616 5612 5607 5603 5595 5588 5583 5575 5570 5562 5556 5550 5545 5541 5532 5525 5515 5509 5511 5511 5510 5505 5504 5498 5488 5486 5480 5477 5483 5489 5485 5489 5493 5494 5492 5490 5487 5486 5486 5486 5490 5496
5610 5608 5600 5597 5592 5585 5577 5569 5563 5557 5553 5546 5541 5535 5531 5522 5510 5501 5493 5488 5484 5486 5488 5489 5486 5480 5475 5474 5474 5476 5476 5475 5482 5481 5488 5488 5489 5488 5485 5483 5483 5483 5483
5599 5594 5588 5583 5574 5565 5559 5553 5550 5545 5539 5534 5526 5524 5520 5512 5498 5489 5482 5479 5476 5478 5478 5475 5470 5469 5469 5472 5474 5473 5473 5483 5478 5479 5480 5480 5480 5478 5474 5475 5475 5473 5472
5583 5575 5568 5560 5553 5548 5545 5538 5536 5530 5524 5513 5516 5510 5500 5496 5488 5482 5482 5480 5476 5474 5471 5475 5472 5468 5468 5470 5473 5476 5475 5471 5469 5470 5469 5469 5471 5465 5467 5465 5467 5467 5466
5567 5558 5551 5544 5538 5530 5526 5516 5513 5502 5497 5503 5501 5499 5489 5485 5471 5461 5459 5462 5460 5460 5456 5468 5469 5468 5469 5467 5463 5462 5461 5460 5460 5459 5462 5463 5465 5459 5458 5458 5459 5464 5464
5556 5550 5543 5533 5528 5518 5515 5503 5488 5482 5475 5472 5471 5473 5476 5464 5458 5453 5450 5449 5450 5449 5458 5459 5459 5456 5452 5449 5448 5449 5449 5447 5447 5448 5450 5453 5454 5447 5448 5452 5454 5459 5463
5547 5540 5534 5523 5517 5510 5503 5495 5490 5468 5465 5462 5460 5460 5457 5451 5451 5446 5444 5445 5442 5446 5452 5448 5442 5440 5442 5443 5443 5442 5440 5440 5440 5442 5444 5444 5441 5442 5445 5449 5454 5457 5463
5536 5523 5525 5516 5510 5509 5501 5492 5484 5479 5476 5472 5459 5459 5450 5447 5443 5441 5442 5445 5449 5448 5447 5439 5434 5435 5434 5435 5437 5438 5438 5438 5439 5438 5441 5441 5439 5442 5447 5453 5456 5466 5463
5533 5524 5518 5508 5507 5498 5495 5489 5487 5483 5479 5476 5466 5454 5448 5443 5440 5438 5438 5445 5446 5444 5442 5438 5433 5434 5435 5434 5433 5432 5432 5433 5434 5437 5442 5444 5441 5445 5450 5456 5463 5458 5453
5524 5509 5505 5508 5504 5498 5493 5488 5483 5480 5474 5470 5463 5456 5450 5451 5439 5444 5442 5442 5444 5442 5440 5441 5438 5433 5432 5432 5430 5428 5426 5431 5434 5435 5444 5450 5443 5447 5451 5456 5456 5451 5446
5518 5507 5496 5503 5498 5493 5488 5479 5476 5472 5470 5463 5457 5449 5440 5446 5447 5447 5443 5442 5441 5442 5439 5438 5441 5438 5436 5434 5430 5431 5427 5424 5430 5431 5439 5445 5441 5444 5446 5448 5449 5446 5443
5512 5508 5502 5497 5491 5484 5476 5472 5472 5468 5467 5463 5458 5453 5442 5445 5446 5446 5441 5442 5442 5440 5439 5438 5439 5437 5436 5435 5431 5429 5423 5415 5419 5425 5431 5440 5438 5440 5442 5444 5444 5443 5443
5507 5502 5500 5491 5483 5476 5477 5476 5472 5472 5470 5467 5463 5457 5454 5449 5447 5445 5443 5439 5440 5439 5437 5437 5437 5436 5434 5433 5431 5427 5423 5411 5409 5416 5427 5437 5435 5438 5439 5441 5442 5441 5441
5509 5505 5497 5495 5487 5489 5485 5480 5479 5471 5470 5465 5460 5453 5448 5444 5443 5442 5441 5441 5439 5439 5438 5436 5435 5434 5433 5432 5431 5427 5421 5412 5410 5416 5424 5434 5436 5438 5438 5439 5439 5440 5442
5504 5501 5497 5493 5490 5489 5489 5483 5478 5474 5467 5459 5453 5448 5448 5450 5448 5446 5444 5442 5440 5438 5437 5435 5435 5433 5433 5432 5428 5424 5419 5417 5416 5415 5425 5434 5440 5441 5443 5440 5441 5443 5449
5502 5496 5493 5491 5488 5487 5485 5481 5477 5472 5465 5460 5458 5457 5453 5451 5448 5444 5441 5438 5436 5436 5435 5436 5435 5434 5434 5433 5426 5423 5423 5423 5423 5423 5425 5434 5441 5444 5444 5449 5445 5448 5451